Location: BAF
(53.9483°N, 27.7497°E)
Time: 22:35:10
(UTC+02:00)

ISS - Pass Details

Date: 03 December 2020
Orbit: 418 x 419 km, 51.6° (Epoch: 16 January)

Event Time Altitude Azimuth Distance (km) Brightness Sun altitude
Rises 16:46:14 0° 266° (W) 2,368 1.5 -7.8°
Reaches altitude 10° 16:48:21 10° 262° (W) 1,503 0.4 -8.1°
Maximum altitude 16:51:40 58° 183° (S) 494 -3.2 -8.5°
Drops below altitude 10° 16:54:59 10° 103° (ESE) 1,501 -1.4 -8.9°
Enters shadow 16:55:27 - 102° (ESE) 1,692 -1.2 -9.0°
